Regional Weather Roundup
Issued by NWS Charleston, WV

Home | Current Version | Previous Version | Graphics & Text | Print | Product List | Glossary On
Versions: 1 2 3 4 5 6 7 8 9 10 11 12 13 14 15 16 17 18 19 20 21 22 23 24 25 26 27 28 29 30 31 32 33 34 35 36 37 38 39 40 41 42 43 44 45 46 47 48 49 50
000
ASUS41 KRLX 311810
RWRRLX
West Virginia Regional Weather Roundup
National Weather Service Charleston WV
100 PM EST SAT JAN 31 2015

Note: "fair" indicates few or no clouds below 12,000 feet with no
significant weather and/or obstructions to visibility.

WVZ003-311900-
Northern Panhandle of West Virginia

CITY           SKY/WX    TMP DP  RH WIND       PRES   REMARKS
WHEELING       SUNNY     24  12  60 SW10      30.29F
$$

WVZ009-311900-
Northwest West Virginia

CITY           SKY/WX    TMP DP  RH WIND       PRES   REMARKS
PARKERSBURG    SUNNY     29  16  58 W9        30.36F
$$

WVZ006-311900-
Western West Virginia

CITY           SKY/WX    TMP DP  RH WIND       PRES   REMARKS
HUNTINGTON     SUNNY     34  18  52 CALM      30.35F
$$

WVZ015-311900-
West Central West Virginia

CITY           SKY/WX    TMP DP  RH WIND       PRES   REMARKS
CHARLESTON     MOSUNNY   32  15  49 VRB3      30.35F
$$

WVZ022-031-311900-
North Central West Virginia

CITY           SKY/WX    TMP DP  RH WIND       PRES   REMARKS
CLARKSBURG     SUNNY     25  13  60 SW6       30.31F
MORGANTOWN     SUNNY     25  11  55 SW7       30.31F
$$

WVZ025-035-042-045-311900-
Southern West Virginia

CITY           SKY/WX    TMP DP  RH WIND       PRES   REMARKS
BECKLEY        SUNNY     29   9  43 W8        30.26F
LOGAN            N/A     32  16  51 VRB3      30.31F HAZE
BLUEFIELD      SUNNY     32   7  35 W12       30.25F
LEWISBURG      SUNNY     34   9  35 W8        30.23F
$$

WVZ047-311900-
Northern Mountains of West Virginia

CITY           SKY/WX    TMP DP  RH WIND       PRES   REMARKS
ELKINS         SUNNY     25  10  53 N3        30.27F
$$

WVZ052-311900-
Eastern Panhandle of West Virginia

CITY           SKY/WX    TMP DP  RH WIND       PRES   REMARKS
MARTINSBURG    SUNNY     29   7  39 W9G18     30.28F
PETERSBURG     SUNNY     32   2  28 E5        30.26F
$$



USA.gov is the U.S. government's official web portal to all federal, state and local government web resources and services.